VIV1213 MMSD-MMMX

Flight info

Callsign VIV1213
Flight time N/A
Altitude 37000
Route ILIGA1A ILIGA UT75 PVR UJ14 QET UT150 DARAN DARAN3A
Aircraft A320/M-SDE3FGHIRWY/LB1

Departure

Time 2026-04-29 01:57
Airport Los Cabos International Airport (MMSD)

Arrival

Time N/A
Airport Mexico City Benito Juárez International Airport (MMMX)
Time Latitude Longitude Altitude Speed Heading
2026-04-29 00:57 23.16291 -109.71855 376 ft 0 kts 84°
2026-04-29 01:44 23.16291 -109.71856 376 ft 1 kts 84°
2026-04-29 01:45 23.16286 -109.71882 376 ft 4 kts 64°
2026-04-29 01:45 23.16271 -109.71902 375 ft 4 kts 17°
2026-04-29 01:45 23.16256 -109.71904 374 ft 1 kts 347°
2026-04-29 01:45 23.16254 -109.71903 374 ft 1 kts 347°
2026-04-29 01:51 23.16263 -109.71905 375 ft 2 kts 347°
2026-04-29 01:51 23.16283 -109.71919 376 ft 5 kts 307°
2026-04-29 01:51 23.16291 -109.71975 377 ft 9 kts 291°
2026-04-29 01:51 23.16344 -109.71999 381 ft 7 kts 355°
2026-04-29 01:52 23.16395 -109.72003 384 ft 8 kts 355°
2026-04-29 01:52 23.16452 -109.72011 387 ft 9 kts 353°
2026-04-29 01:52 23.16519 -109.72019 390 ft 9 kts 353°
2026-04-29 01:52 23.16560 -109.72050 391 ft 8 kts 283°
2026-04-29 01:53 23.16558 -109.72091 391 ft 3 kts 263°
2026-04-29 01:53 23.16555 -109.72122 391 ft 3 kts 264°
2026-04-29 01:53 23.16555 -109.72123 391 ft 0 kts 264°
2026-04-29 01:54 23.16554 -109.72128 391 ft 2 kts 264°
2026-04-29 01:55 23.16551 -109.72163 391 ft 5 kts 264°
2026-04-29 01:55 23.16548 -109.72197 392 ft 5 kts 264°
2026-04-29 01:55 23.16530 -109.72224 392 ft 6 kts 187°
2026-04-29 01:55 23.16507 -109.72223 391 ft 0 kts 173°
2026-04-29 01:56 23.16466 -109.72218 390 ft 29 kts 174°
2026-04-29 01:56 23.16014 -109.72167 380 ft 98 kts 174°
2026-04-29 01:56 23.15162 -109.72070 353 ft 149 kts 174°
2026-04-29 01:57 23.14053 -109.71930 742 ft 162 kts 172°
2026-04-29 01:57 23.12935 -109.71783 1423 ft 162 kts 173°
2026-04-29 01:57 23.11799 -109.71562 1866 ft 173 kts 164°
2026-04-29 01:57 23.10582 -109.71130 2127 ft 194 kts 159°
2026-04-29 01:58 23.09310 -109.70449 2380 ft 215 kts 149°
2026-04-29 01:58 23.08050 -109.69410 2592 ft 240 kts 137°
2026-04-29 01:58 23.06898 -109.67972 2931 ft 264 kts 124°
2026-04-29 01:58 23.05898 -109.66256 3605 ft 273 kts 121°
2026-04-29 01:59 23.04890 -109.64520 4418 ft 277 kts 121°
2026-04-29 01:59 23.03853 -109.62743 5275 ft 280 kts 121°
2026-04-29 01:59 23.02803 -109.60948 6089 ft 284 kts 122°
2026-04-29 01:59 23.01735 -109.59124 6702 ft 289 kts 122°
2026-04-29 02:00 23.00657 -109.57280 6903 ft 290 kts 123°
2026-04-29 02:00 22.99578 -109.55426 6966 ft 290 kts 123°
2026-04-29 02:00 22.98487 -109.53570 7273 ft 293 kts 123°
2026-04-29 02:00 22.97377 -109.51718 8099 ft 294 kts 124°
2026-04-29 02:01 22.96254 -109.49855 8869 ft 296 kts 124°
2026-04-29 02:01 22.95133 -109.47998 9602 ft 300 kts 124°
2026-04-29 02:01 22.94548 -109.47029 9964 ft 302 kts 124°
2026-04-29 02:01 22.93357 -109.45056 10225 ft 323 kts 124°
2026-04-29 02:02 22.92463 -109.43575 10332 ft 339 kts 124°
2026-04-29 02:02 22.91339 -109.41706 10648 ft 349 kts 124°
2026-04-29 02:02 22.90003 -109.39482 11218 ft 354 kts 124°
2026-04-29 02:02 22.88653 -109.37241 11844 ft 356 kts 126°
2026-04-29 02:03 22.87129 -109.35115 12460 ft 358 kts 130°
2026-04-29 02:03 22.85557 -109.33008 13086 ft 361 kts 130°